Wetbulb
39.93 36.79 33.14 36.14 36.39 35.52 35.49 33.84 33.72 35.93 39.16 37.57 37.16 37.13 39.91 40.77 40.66 41.09 41.41 43.50 45.82 47.85 48.63 49.64 50.31 50.75 50.26 50.72 51.13 51.53 50.88 51.14 51.34 52.63 53.22 52.37 52.85 54.41 55.29 55.58 56.70 57.88 59.34 60.80
36.85 33.72 39.65 40.39 39.59 38.76 36.69 33.68 33.90 37.16 39.68 38.31 36.75 37.79 40.25 41.26 41.52 42.14 42.33 41.99 46.51 46.26 47.29 48.71 48.86 49.21 49.78 50.49 51.23 51.07 50.78 50.69 52.23 52.70 52.56 53.30 53.49 53.51 53.98 54.58 55.40 55.91 56.13 57.85
35.15 39.12 42.84 41.33 38.72 37.87 35.21 33.73 34.25 36.21 37.90 37.66 36.74 35.50 38.35 41.60 41.91 43.13 43.32 43.78 45.91 47.53 47.42 47.73 47.74 48.41 49.31 50.06 50.22 50.38 49.88 50.12 50.82 50.85 49.99 49.49 49.45 49.60 49.36 49.99 50.69 52.40 54.74 56.33
36.89 39.92 40.08 37.30 37.46 38.19 32.81 39.03 38.36 37.53 34.61 30.42 35.77 27.71 34.30 37.96 39.51 41.58 43.12 41.53 43.43 46.70 47.92 47.62 46.88 47.26 47.86 49.01 49.79 49.61 49.04 48.67 49.61 49.75 48.07 47.48 46.75 46.16 47.39 48.03 49.45 50.80 53.14 54.44
38.17 37.90 36.90 36.23 38.31 40.38 37.16 39.43 38.25 36.90 32.48 30.34 31.16 29.08 32.70 34.87 36.24 39.51 40.63 41.10 41.72 46.16 47.32 46.85 46.98 47.72 48.04 48.76 48.24 48.11 47.66 47.79 48.74 48.30 47.87 46.64 46.08 45.89 46.58 46.97 47.43 49.08 50.03 52.16
38.94 40.73 40.25 39.29 40.56 40.70 41.34 37.15 35.47 33.22 30.18 24.02 31.06 31.30 29.48 33.72 36.33 41.09 43.05 44.09 43.18 43.84 45.30 46.71 47.25 47.45 47.60 46.14 46.45 46.35 46.79 47.07 47.35 47.95 48.09 47.19 45.58 45.09 44.92 46.01 45.45 46.71 48.14 49.82
36.61 37.33 39.50 41.46 36.71 38.18 36.42 32.27 23.70 24.67 24.60 24.47 31.47 29.04 31.25 37.21 40.29 43.19 43.87 43.42 42.71 44.28 45.75 46.21 45.31 45.75 45.60 44.97 45.05 45.69 45.87 45.91 46.53 47.30 47.07 46.62 45.70 45.19 44.55 45.14 45.69 46.17 46.57 48.15
31.67 31.75 38.61 41.39 39.27 35.99 33.92 33.44 25.88 22.38 20.75 25.83 34.13 29.70 35.37 42.38 43.50 43.28 43.07 42.34 42.86 43.16 44.52 45.58 46.22 45.73 44.69 44.36 44.83 45.84 45.45 45.59 45.94 46.21 45.37 45.29 45.31 44.85 45.37 45.90 45.98 46.06 46.70 47.58
30.43 32.47 40.51 41.66 40.63 40.56 33.87 31.10 33.86 28.34 28.00 25.65 29.89 34.16 38.81 41.97 42.19 41.84 41.47 42.81 42.54 43.55 44.49 45.89 45.34 45.41 43.99 44.16 44.54 44.59 44.80 44.95 45.28 44.79 44.55 44.50 44.88 44.73 44.78 45.92 46.07 46.23 47.39 47.88
35.86 29.94 39.06 41.60 41.36 39.65 37.04 39.09 29.52 26.72 24.17 22.68 27.06 29.56 31.51 38.09 39.67 41.39 41.34 41.96 43.27 44.46 44.15 44.68 45.11 44.34 43.51 43.76 44.11 44.18 44.39 44.35 44.58 44.36 44.27 45.25 44.98 45.29 45.78 45.80 45.52 46.43 46.92 47.82
36.79 31.91 34.67 38.74 36.12 35.22 35.08 32.32 32.81 31.57 28.15 24.04 21.96 28.32 37.40 38.18 41.04 41.07 41.86 43.19 43.68 43.47 44.26 44.77 44.19 43.25 43.27 43.21 42.94 43.59 43.67 43.57 43.61 44.04 44.16 44.06 44.55 45.53 45.80 45.47 45.96 46.17 46.47 47.07
39.16 31.82 28.22 34.47 39.32 40.64 38.46 35.55 34.72 28.15 27.40 27.50 26.15 31.28 41.25 41.85 42.17 42.72 43.10 44.38 43.94 44.24 44.31 44.00 42.52 42.19 42.06 42.66 42.99 43.11 43.27 43.25 43.86 44.28 44.14 43.99 44.66 44.90 44.85 44.97 45.48 46.19 46.18 46.97
39.49 30.32 25.21 30.07 33.71 37.78 35.39 35.53 35.84 32.19 30.28 28.69 25.92 32.09 40.94 41.81 41.85 43.10 43.61 43.71 44.04 44.27 43.19 41.77 41.16 41.39 42.29 42.62 42.89 42.84 43.21 43.48 43.68 43.58 43.43 43.44 43.49 43.55 43.81 44.85 45.81 46.09 45.97 46.20
41.43 33.07 28.77 25.05 30.16 35.00 33.67 36.67 35.57 34.07 26.58 33.39 30.36 36.58 37.98 40.50 41.08 42.63 42.79 42.82 42.98 43.83 42.68 41.07 40.75 41.41 42.16 42.77 42.84 42.90 43.20 43.17 42.76 42.87 42.74 42.54 42.93 43.56 44.12 44.93 45.42 45.68 46.36 46.74
34.87 27.29 32.13 33.87 35.91 35.36 35.35 35.95 36.91 32.96 35.97 30.51 36.60 33.85 39.53 40.33 40.99 42.64 44.46 43.24 43.37 43.08 41.75 41.36 41.30 41.44 41.93 42.20 42.15 42.86 42.13 42.07 42.51 42.07 42.00 42.39 43.45 44.31 44.52 44.81 45.19 46.11 46.63 46.66
33.63 26.90 30.55 28.29 31.67 32.43 33.25 36.12 37.57 37.15 38.05 36.96 37.71 36.99 40.76 41.18 42.40 42.05 43.42 43.46 43.19 43.46 42.78 42.41 42.77 42.57 42.46 42.17 42.23 41.92 41.13 41.14 41.82 41.48 41.54 42.84 43.72 44.00 44.07 44.50 45.19 45.67 45.86 45.93
29.22 27.87 25.29 22.83 29.42 29.81 25.05 32.40 35.91 37.98 39.22 39.38 34.19 39.52 40.14 40.19 41.34 41.98 42.67 43.19 44.04 43.51 42.95 43.00 42.94 42.88 42.40 41.75 41.36 40.29 40.10 41.11 40.97 41.17 42.18 42.74 43.19 43.44 43.93 44.92 44.95 44.98 44.85 45.28
28.52 28.15 27.57 23.34 25.94 17.43 28.73 37.65 38.53 38.04 40.13 40.52 39.42 38.70 40.37 41.73 43.19 43.31 43.09 42.86 42.85 42.75 43.50 43.29 42.67 42.18 41.46 40.55 40.21 39.84 39.95 39.97 40.41 40.98 42.09 42.76 42.63 42.65 43.88 44.25 44.29 44.58 45.31 45.47
33.06 28.72 23.73 22.17 21.48 25.93 29.39 32.67 34.59 34.46 34.88 41.24 40.30 42.26 42.93 40.65 41.54 41.72 43.82 43.79 43.55 43.55 43.82 43.23 42.62 41.52 39.84 39.66 39.86 38.99 38.79 39.58 40.21 41.57 41.35 41.87 42.54 42.93 43.37 43.59 44.17 44.99 45.42 46.90
32.60 32.75 27.04 21.18 17.27 14.60 27.12 34.11 37.43 36.50 26.93 39.70 41.44 42.40 42.48 40.61 35.48 42.35 43.57 43.98 43.65 43.92 43.43 42.33 41.14 39.84 39.25 39.12 39.16 38.17 38.31 38.76 39.68 41.30 41.93 42.91 43.30 43.17 43.30 44.17 44.40 45.52 46.75 48.33
22.67 27.15 23.95 24.85 21.96 24.74 33.01 37.82 41.31 29.11 29.64 41.14 42.22 42.67 39.83 39.96 42.29 42.09 43.29 43.70 44.69 43.86 42.88 41.71 40.12 39.07 39.04 39.41 38.98 38.02 38.02 37.79 40.78 42.91 43.09 43.16 43.01 43.09 44.20 44.13 45.03 45.16 46.21 46.93
22.62 21.24 21.74 26.00 23.41 20.64 37.85 37.94 31.72 34.40 39.19 40.79 42.60 43.03 41.66 42.52 43.04 42.90 43.79 44.45 43.77 42.54 42.22 40.72 39.03 38.58 39.20 39.60 38.89 37.98 37.56 39.89 42.08 42.88 42.58 42.79 42.83 43.56 43.70 43.49 43.93 44.27 44.38 44.21
20.19 27.04 23.09 27.56 24.09 33.81 38.00 38.32 39.97 41.07 41.41 41.45 45.69 45.24 44.03 44.34 44.00 44.75 45.08 44.01 42.99 42.10 41.55 40.56 39.28 38.49 38.99 39.39 38.96 38.13 38.85 40.98 42.54 42.33 42.21 42.32 43.01 42.07 42.67 41.85 40.99 40.57 42.59 41.96
32.04 35.92 31.15 31.90 31.93 34.42 38.04 40.44 41.21 44.03 42.34 43.98 43.92 46.42 45.36 45.19 44.95 44.27 44.43 41.82 41.32 41.81 40.76 39.79 38.30 37.79 38.02 38.93 38.76 38.72 39.73 42.57 42.32 41.57 41.55 41.91 41.07 40.75 41.33 41.31 40.10 40.28 40.50 40.53
30.63 34.24 30.95 30.42 32.44 34.40 36.02 38.65 42.66 42.83 43.51 43.84 45.16 46.68 46.72 46.07 44.91 44.22 41.29 40.43 41.01 40.68 40.16 39.18 37.89 37.66 38.32 38.54 38.35 39.60 41.96 42.55 41.46 41.40 41.16 40.51 39.99 39.92 39.37 39.83 39.50 39.97 40.99 40.22
32.33 29.78 28.25 26.23 32.91 32.77 35.18 41.09 44.06 42.17 41.84 43.63 43.84 47.17 47.40 47.32 44.78 42.84 40.69 40.45 40.12 39.73 39.50 37.95 37.99 38.27 38.32 38.54 39.29 39.83 42.52 42.67 41.32 39.34 39.44 38.31 37.75 38.18 38.47 37.95 37.97 39.17 38.77 38.85
MSLP
1010.50 1011.54 1012.00 1012.18 1012.18 1012.05 1011.86 1011.70 1011.51 1011.02 1010.65 1010.82 1010.98 1010.97 1010.73 1010.64 1011.02 1011.52 1011.85 1012.34 1012.71 1012.81 1013.08 1013.48 1013.78 1014.04 1014.44 1014.64 1014.86 1014.88 1015.16 1015.40 1015.66 1015.86 1016.06 1016.17 1016.28 1016.26 1016.04 1015.66 1015.42 1015.24 1015.04 1014.82
1011.20 1011.44 1011.08 1011.31 1011.44 1011.68 1011.87 1011.88 1011.77 1011.21 1010.94 1011.23 1011.24 1011.21 1010.85 1010.68 1010.66 1010.58 1011.06 1011.67 1011.86 1012.60 1012.94 1013.32 1013.58 1013.92 1014.17 1014.38 1014.73 1014.90 1015.10 1015.30 1015.42 1015.46 1015.71 1015.68 1015.85 1015.77 1015.75 1015.53 1015.44 1015.15 1014.85 1014.57
1010.98 1010.54 1010.46 1010.78 1011.07 1011.47 1011.60 1011.99 1011.92 1011.75 1011.64 1011.81 1011.93 1011.38 1010.94 1010.29 1010.12 1010.04 1010.19 1010.30 1010.91 1011.37 1012.13 1012.85 1013.34 1013.64 1013.94 1014.17 1014.22 1014.44 1014.54 1014.92 1014.98 1015.14 1015.48 1015.37 1015.45 1015.54 1015.62 1015.46 1015.25 1014.84 1014.48 1014.26
1010.64 1010.14 1010.15 1010.42 1010.67 1010.95 1011.24 1011.05 1011.58 1012.23 1012.80 1013.19 1012.92 1012.32 1011.46 1010.63 1010.36 1010.21 1009.78 1010.22 1010.34 1010.90 1011.57 1012.22 1012.90 1013.44 1013.82 1013.80 1013.77 1013.89 1013.96 1014.51 1014.84 1015.18 1015.48 1015.48 1015.78 1016.02 1015.54 1015.44 1014.91 1014.52 1014.22 1014.00
1010.07 1009.90 1010.02 1010.13 1010.14 1010.59 1011.06 1011.24 1012.24 1013.08 1013.97 1014.28 1014.14 1014.04 1011.26 1011.05 1010.66 1010.05 1009.49 1009.78 1010.10 1010.10 1010.55 1011.52 1012.44 1012.99 1013.46 1013.48 1013.59 1013.89 1014.21 1014.50 1014.96 1015.26 1015.21 1015.25 1015.48 1015.52 1015.26 1015.02 1014.62 1014.10 1013.84 1013.63
1009.82 1009.70 1009.60 1009.45 1009.48 1010.09 1011.06 1012.09 1013.49 1014.73 1015.27 1015.11 1014.23 1013.90 1011.64 1010.93 1010.03 1009.86 1009.56 1009.53 1009.56 1009.86 1010.55 1011.33 1012.22 1012.99 1013.29 1013.47 1013.66 1014.12 1014.47 1014.71 1015.04 1015.04 1014.86 1014.98 1015.24 1015.14 1015.02 1014.60 1014.34 1013.85 1013.49 1013.20
1010.24 1009.71 1009.08 1009.02 1009.73 1010.48 1011.24 1013.00 1014.91 1015.92 1016.36 1015.48 1014.46 1014.29 1011.48 1010.14 1009.99 1009.97 1009.66 1009.34 1009.53 1009.83 1010.32 1011.27 1012.28 1012.90 1013.14 1013.52 1013.82 1014.26 1014.47 1014.78 1014.90 1014.73 1014.66 1014.79 1014.90 1014.96 1014.78 1014.42 1014.01 1013.52 1013.10 1012.76
1011.14 1010.12 1009.18 1008.84 1009.11 1009.95 1011.33 1012.44 1014.73 1015.82 1016.82 1015.92 1015.04 1013.48 1010.75 1009.91 1009.87 1009.85 1009.72 1009.52 1010.04 1010.46 1010.75 1011.39 1012.07 1012.35 1012.87 1013.46 1013.89 1014.14 1014.36 1014.60 1014.54 1014.40 1014.50 1014.54 1014.58 1014.61 1014.24 1013.83 1013.40 1012.96 1012.57 1012.13
1011.41 1010.15 1008.90 1008.58 1008.80 1009.32 1011.49 1012.59 1013.10 1015.00 1016.46 1016.42 1014.42 1012.35 1010.53 1009.92 1009.95 1010.15 1010.29 1010.32 1010.60 1010.93 1011.26 1011.56 1011.93 1012.34 1012.86 1013.42 1013.74 1013.98 1014.30 1014.38 1014.20 1014.25 1014.35 1014.33 1014.22 1014.03 1013.55 1013.10 1012.70 1012.21 1011.82 1011.44
1011.68 1011.04 1009.48 1008.83 1008.95 1009.81 1010.30 1011.48 1013.56 1015.26 1016.33 1016.09 1014.13 1012.78 1010.86 1010.32 1010.28 1010.56 1010.86 1011.02 1011.15 1011.13 1011.38 1011.60 1011.94 1012.25 1012.79 1013.18 1013.46 1013.80 1014.03 1013.91 1013.92 1014.03 1014.04 1013.88 1013.57 1013.17 1012.73 1012.33 1011.78 1011.36 1011.06 1010.75
1012.80 1012.50 1011.00 1009.87 1009.50 1009.88 1010.96 1011.64 1013.16 1014.12 1015.02 1014.91 1014.22 1011.72 1009.56 1009.35 1009.69 1010.18 1010.51 1010.53 1010.61 1010.96 1011.20 1011.26 1011.55 1011.99 1012.53 1012.96 1013.35 1013.56 1013.58 1013.67 1013.75 1013.76 1013.62 1013.36 1012.87 1012.42 1011.98 1011.56 1010.99 1010.60 1010.25 1009.82
1014.18 1013.61 1012.80 1010.97 1009.78 1009.50 1009.79 1010.58 1011.70 1013.32 1014.41 1014.53 1013.54 1009.82 1008.31 1008.45 1008.78 1009.16 1009.65 1010.03 1010.25 1010.60 1010.77 1011.24 1011.77 1012.27 1012.64 1012.84 1013.07 1013.11 1013.24 1013.49 1013.46 1013.35 1013.17 1012.71 1012.19 1011.81 1011.38 1010.83 1010.21 1009.75 1009.24 1008.86
1015.31 1014.88 1014.24 1012.28 1011.06 1010.36 1010.42 1010.72 1011.17 1012.03 1012.68 1012.53 1012.00 1008.81 1007.61 1008.17 1008.57 1008.74 1009.13 1009.50 1009.73 1010.15 1010.58 1011.05 1011.73 1012.11 1012.36 1012.56 1012.63 1012.80 1013.02 1013.09 1013.04 1012.92 1012.59 1012.16 1011.82 1011.36 1010.76 1010.05 1009.30 1008.84 1008.42 1008.03
1016.08 1015.90 1015.58 1014.35 1012.77 1012.27 1011.72 1011.22 1011.15 1010.88 1011.47 1010.08 1009.86 1007.80 1007.92 1008.06 1008.27 1008.43 1008.62 1008.74 1009.17 1009.70 1010.20 1010.59 1011.27 1011.67 1011.98 1012.20 1012.33 1012.54 1012.70 1012.79 1012.67 1012.47 1012.27 1011.86 1011.35 1010.81 1009.98 1009.20 1008.60 1008.03 1007.40 1006.76
1016.88 1016.42 1015.94 1014.70 1014.13 1013.56 1012.41 1011.36 1010.79 1010.60 1009.11 1008.66 1007.25 1007.78 1006.06 1007.07 1007.44 1007.60 1007.59 1008.28 1008.95 1009.34 1009.96 1010.30 1010.87 1011.27 1011.57 1011.89 1012.12 1012.36 1012.51 1012.44 1012.37 1012.28 1011.96 1011.35 1010.72 1010.02 1009.24 1008.50 1007.83 1007.05 1006.28 1005.60
1017.11 1016.75 1016.48 1015.14 1014.55 1013.63 1012.38 1011.30 1009.98 1008.85 1008.00 1007.69 1006.59 1006.01 1005.14 1005.93 1006.24 1006.92 1007.15 1007.88 1008.37 1008.64 1008.99 1009.60 1010.28 1010.82 1011.24 1011.46 1011.89 1012.30 1012.40 1012.33 1012.27 1012.00 1011.41 1010.75 1010.08 1009.32 1008.54 1007.71 1006.82 1005.92 1005.12 1004.50
1018.14 1017.74 1017.44 1015.32 1014.72 1013.86 1012.43 1009.28 1009.14 1008.17 1006.94 1006.18 1006.00 1004.74 1005.15 1005.34 1005.80 1005.92 1006.12 1006.71 1007.08 1007.50 1008.16 1008.87 1009.64 1010.26 1010.70 1011.23 1011.74 1012.16 1012.23 1012.21 1012.00 1011.53 1010.82 1010.15 1009.50 1008.59 1007.76 1006.82 1005.87 1004.90 1004.02 1003.19
1017.17 1017.30 1017.44 1015.63 1015.06 1013.20 1009.42 1008.73 1007.89 1007.15 1006.22 1005.84 1005.30 1004.62 1004.16 1004.30 1004.56 1004.86 1005.10 1005.55 1006.14 1006.81 1007.59 1008.45 1009.23 1009.99 1010.63 1011.22 1011.58 1011.95 1012.16 1011.96 1011.48 1010.95 1010.22 1009.58 1008.75 1007.78 1006.85 1005.96 1005.00 1004.02 1003.16 1002.19
1015.36 1015.80 1015.90 1015.46 1013.42 1011.70 1009.95 1007.69 1007.86 1007.11 1005.91 1005.32 1004.68 1003.99 1003.88 1004.44 1004.82 1004.72 1005.01 1005.20 1005.49 1006.21 1007.29 1008.36 1008.97 1009.73 1010.51 1011.07 1011.42 1011.86 1011.89 1011.56 1011.12 1010.31 1009.71 1008.89 1007.98 1006.96 1006.12 1005.19 1004.14 1003.36 1002.47 1001.26
1014.44 1014.70 1014.85 1014.21 1012.72 1010.50 1008.06 1007.57 1007.90 1007.38 1006.06 1004.54 1004.50 1003.87 1003.72 1004.76 1005.39 1003.60 1004.31 1004.79 1005.60 1006.39 1007.38 1008.38 1009.08 1009.72 1010.51 1011.06 1011.41 1011.60 1011.42 1011.24 1010.70 1009.90 1008.94 1008.07 1007.22 1006.46 1005.52 1004.54 1003.71 1002.79 1001.91 1000.63
1013.84 1013.63 1013.38 1012.60 1011.49 1009.54 1007.51 1006.86 1006.61 1006.77 1004.49 1003.87 1003.95 1002.75 1003.21 1003.91 1003.13 1003.34 1003.82 1005.12 1005.81 1006.52 1007.52 1008.30 1009.07 1009.72 1010.51 1010.98 1011.24 1011.29 1011.10 1010.78 1010.17 1009.25 1008.40 1007.40 1006.65 1005.84 1005.00 1004.12 1003.22 1002.28 1001.31 1000.28
1014.01 1013.46 1012.64 1011.84 1010.82 1009.08 1007.71 1006.81 1006.95 1006.26 1005.07 1004.90 1003.56 1003.10 1003.00 1002.86 1002.92 1003.20 1003.74 1005.06 1005.81 1006.80 1007.76 1008.62 1009.19 1009.98 1010.47 1010.84 1011.03 1010.92 1010.57 1010.11 1009.49 1008.78 1007.79 1006.98 1006.22 1005.41 1004.64 1003.81 1002.69 1002.08 1001.32 1000.12
1013.14 1012.16 1011.74 1010.98 1009.26 1007.66 1007.05 1006.77 1006.08 1006.12 1005.80 1005.00 1004.24 1003.25 1002.76 1002.74 1002.53 1003.06 1003.98 1004.04 1005.67 1006.93 1007.84 1008.71 1009.26 1009.95 1010.49 1010.62 1010.62 1010.46 1010.00 1009.53 1008.98 1008.20 1007.34 1006.61 1005.88 1005.17 1004.49 1003.66 1002.74 1002.19 1001.46 1000.30
1011.47 1011.13 1010.78 1009.90 1008.08 1007.33 1006.82 1006.43 1005.76 1005.56 1005.35 1004.95 1004.00 1002.95 1002.45 1002.20 1002.19 1002.90 1004.00 1004.29 1005.81 1006.98 1007.92 1008.68 1009.44 1010.08 1010.28 1010.27 1010.22 1010.03 1009.58 1009.21 1008.55 1007.82 1007.12 1006.34 1005.71 1004.95 1004.21 1003.55 1002.95 1002.29 1001.58 1000.44
1010.83 1010.39 1009.85 1008.77 1007.26 1007.04 1005.89 1005.46 1005.14 1004.90 1005.02 1004.28 1003.71 1002.38 1001.36 1001.74 1002.31 1002.91 1003.79 1004.80 1006.00 1007.00 1007.93 1008.66 1009.38 1009.91 1010.07 1010.04 1009.98 1009.72 1009.30 1008.79 1008.21 1007.74 1006.97 1006.35 1005.75 1005.08 1004.21 1003.60 1002.87 1002.03 1001.54 1000.87
1009.53 1008.85 1008.99 1007.14 1006.44 1006.60 1005.34 1004.92 1004.72 1004.73 1004.42 1003.84 1003.56 1002.35 1001.41 1001.10 1001.98 1003.13 1004.06 1004.93 1006.09 1007.12 1007.88 1008.70 1009.43 1009.72 1009.87 1009.96 1009.92 1009.56 1009.00 1008.57 1008.26 1007.74 1007.00 1006.55 1005.99 1005.29 1004.44 1003.40 1002.03 1001.49 1000.75 1000.20
Wind_Speed
2 5 5 7 6 2 1 1 2 3 4 2 6 7 11 6 4 7 8 9 10 14 5 6 8 8 7 6 7 7 8 5 3 2 2 2 2 3 3 3 6 5 5 5
6 5 8 4 3 4 3 1 6 6 3 3 4 8 9 5 7 9 11 11 16 9 9 9 8 7 8 8 8 7 7 5 3 3 2 2 2 2 3 3 5 5 6 6
6 6 4 4 3 3 3 5 5 7 3 2 4 7 6 7 5 5 8 8 14 20 18 12 10 9 7 8 9 8 8 5 3 3 1 2 1 1 2 2 4 5 6 7
5 3 4 3 2 6 4 8 5 4 4 4 1 8 6 6 8 6 12 9 11 13 11 9 9 8 8 8 6 5 6 4 3 2 1 3 1 2 3 4 4 5 7 8
8 6 4 4 7 7 8 5 7 3 3 1 2 2 8 3 6 11 9 8 8 13 17 15 12 9 7 7 7 5 5 4 2 3 2 2 2 3 4 6 7 6 5 8
6 1 5 8 4 6 9 6 7 5 3 2 8 8 6 4 5 6 5 6 9 11 10 11 8 8 7 4 5 5 5 3 4 3 1 2 5 6 6 9 8 7 6 5
5 4 4 4 3 3 6 7 3 4 3 7 0 2 10 6 7 6 14 10 5 9 14 13 10 8 7 7 6 5 5 5 6 3 3 5 6 7 9 10 8 8 7 7
5 9 7 5 9 10 7 9 8 7 5 5 1 7 8 3 5 7 5 2 5 7 9 11 11 9 8 7 7 7 6 6 5 3 6 6 7 6 8 10 9 8 8 9
5 7 5 5 3 9 5 4 5 7 3 2 6 8 8 2 5 4 4 7 8 8 8 11 8 7 8 8 8 7 7 6 5 6 5 7 7 9 10 12 11 9 9 9
4 5 6 6 5 4 6 8 4 3 4 5 5 5 8 5 4 3 4 7 7 8 7 6 8 8 6 6 6 5 6 5 5 6 6 8 9 9 11 10 11 11 11 11
6 4 7 2 6 10 3 2 5 5 5 7 2 8 8 9 11 11 10 11 11 9 9 10 8 6 7 5 5 6 4 5 5 5 7 9 10 10 11 11 12 12 12 12
4 2 4 10 5 2 6 9 7 8 6 3 3 13 6 9 12 11 11 9 7 8 9 6 5 6 6 6 5 5 4 5 5 6 8 10 11 11 12 12 13 13 13 12
6 3 5 10 6 4 3 5 6 4 5 9 7 13 4 4 6 9 11 9 9 9 7 7 7 8 7 6 5 5 4 5 5 7 8 11 11 12 13 13 13 13 14 14
4 4 8 10 8 5 8 8 5 7 5 15 8 23 5 6 8 8 10 10 9 8 8 7 7 7 6 6 5 5 5 5 6 8 9 12 12 13 13 14 14 14 15 16
5 6 4 11 7 7 14 19 17 10 18 11 22 11 20 11 11 12 14 5 8 9 9 10 9 7 6 6 5 4 5 6 6 9 10 12 12 13 13 14 15 16 16 16
2 5 3 15 14 15 14 15 20 22 21 15 20 19 8 9 9 6 10 9 10 10 11 10 8 7 7 6 5 4 5 7 7 10 12 12 12 13 13 14 16 16 17 17
9 7 3 22 13 11 10 25 17 18 16 20 17 21 7 9 11 12 13 12 15 14 12 12 9 8 6 6 4 4 5 6 8 10 11 12 12 13 14 15 16 17 17 17
14 15 9 17 11 17 16 3 11 16 20 14 9 8 9 12 13 11 8 9 11 11 11 8 7 6 5 4 3 3 5 7 9 9 12 13 14 16 15 15 16 16 15 17
21 15 11 14 16 17 20 20 4 4 13 12 17 21 16 5 3 8 6 8 11 9 7 6 6 5 6 5 2 3 5 7 7 11 13 14 15 14 15 16 17 16 15 16
16 17 13 3 14 21 23 21 17 21 20 20 17 22 21 7 5 18 10 8 7 8 7 8 6 5 5 3 2 3 6 6 8 12 12 12 13 14 15 16 16 14 15 15
3 5 14 11 12 10 11 5 6 18 12 7 5 20 11 13 13 3 10 6 6 6 8 7 7 6 5 3 2 4 5 6 10 11 12 13 14 15 15 15 14 14 15 15
3 3 5 6 7 12 1 4 15 5 14 14 21 7 8 6 6 7 11 10 8 8 7 7 7 5 4 3 2 4 5 8 9 10 11 12 15 12 12 15 14 14 13 14
5 8 4 5 6 3 5 8 8 9 13 15 18 15 10 10 8 11 9 11 9 8 7 5 6 5 3 3 1 4 7 8 9 10 11 13 13 14 13 14 15 13 11 11
5 6 5 3 7 10 6 8 7 6 10 14 20 19 14 14 9 8 9 9 8 8 7 5 6 5 2 2 3 3 6 8 8 10 12 11 12 14 12 10 11 10 9 10
7 5 4 11 16 11 17 13 7 9 10 13 18 14 17 11 10 10 8 9 8 7 6 6 6 4 2 2 4 5 6 8 8 9 10 11 9 11 12 11 11 10 9 9
7 13 9 12 14 7 15 7 5 8 13 14 20 12 6 13 13 8 9 8 8 7 6 6 5 4 2 3 3 5 6 8 8 9 8 10 10 10 10 11 12 12 13 16
Wind_Direction
29 75 212 217 193 158 146 172 254 252 256 214 222 246 252 251 202 190 185 193 203 211 196 186 190 179 167 154 151 148 143 162 155 152 157 144 185 241 271 279 282 283 282 279
27 234 226 199 188 199 185 292 284 283 264 164 288 260 250 246 223 210 201 205 206 191 183 195 192 185 180 160 165 156 150 142 157 133 181 160 173 241 245 266 289 285 287 277
160 228 111 172 174 173 214 183 223 219 1 15 337 280 237 260 258 242 242 210 207 196 189 190 186 188 173 177 180 170 143 141 128 108 152 46 53 350 311 284 275 270 276 281
219 271 155 129 223 155 245 209 177 179 104 235 47 280 286 241 249 257 252 207 204 197 191 180 171 177 183 195 177 147 127 142 102 117 113 101 143 291 251 273 255 267 271 272
248 174 175 202 214 163 228 143 153 137 130 84 280 315 261 249 255 251 256 260 231 200 182 175 174 173 198 178 167 149 147 120 151 196 136 91 299 236 271 286 280 273 276 269
234 221 178 208 234 171 153 80 55 60 101 318 212 179 274 243 215 303 273 255 243 178 170 154 159 172 186 156 149 163 161 168 217 236 356 300 285 293 297 298 294 289 277 263
328 235 250 160 166 48 82 73 347 346 6 231 203 124 249 242 281 253 287 282 235 165 154 150 155 180 190 183 182 184 176 209 224 252 296 284 272 271 275 280 281 283 282 272
191 294 179 186 190 183 187 153 157 206 198 253 94 237 252 246 307 300 300 168 124 133 137 148 177 192 190 189 191 194 194 227 244 272 275 271 266 265 267 272 269 267 266 270
189 259 285 183 179 139 191 166 201 104 21 64 234 291 305 234 359 24 74 112 127 133 154 182 196 194 193 189 195 195 208 234 257 265 262 264 265 263 266 275 266 266 265 266
275 297 239 239 101 47 164 159 80 3 169 229 269 268 237 236 211 141 138 156 180 188 199 206 206 199 190 187 196 203 221 249 270 273 268 276 273 270 275 276 271 272 274 271
1 135 285 92 201 178 145 187 52 125 142 180 210 257 216 210 187 188 200 199 199 201 208 211 208 190 184 188 202 225 240 258 269 274 276 278 285 286 286 279 282 279 277 273
10 285 251 239 274 242 176 194 157 140 223 228 165 261 201 210 192 184 207 215 215 215 221 221 186 180 194 209 229 242 256 253 261 276 284 288 295 294 286 280 280 280 279 276
347 323 337 330 349 13 223 197 149 120 76 198 167 263 196 193 185 209 204 212 213 219 210 186 180 195 204 228 238 247 246 265 280 284 298 300 292 286 281 280 285 288 287 282
350 232 201 241 262 312 287 307 247 179 164 240 214 254 202 217 215 218 221 220 218 229 207 190 187 199 210 226 235 247 269 269 287 300 296 289 285 282 282 286 287 284 283 284
194 237 234 270 278 303 290 286 269 214 233 203 248 218 251 206 208 221 228 210 204 216 200 194 198 204 210 228 241 253 272 294 302 295 288 284 284 285 287 289 288 287 289 287
229 259 273 280 291 279 276 282 261 255 249 251 247 256 252 203 216 212 213 201 213 217 208 193 201 194 212 221 223 262 285 298 299 289 286 287 291 291 291 291 292 292 291 287
263 272 247 270 268 287 276 245 256 259 245 233 233 246 168 224 216 226 230 207 217 212 192 189 193 197 206 197 201 264 295 297 287 280 283 291 294 297 300 298 297 293 294 292
236 235 227 257 276 250 249 281 264 258 251 245 258 250 202 211 220 230 229 215 212 182 182 182 176 183 183 176 197 282 280 283 284 287 301 305 309 308 304 302 297 300 302 297
218 220 231 230 241 263 285 267 249 210 267 264 245 248 238 230 79 274 208 206 197 168 158 176 172 165 161 176 219 274 288 288 293 308 312 313 315 306 305 300 302 304 302 299
222 222 222 210 230 244 256 261 244 259 260 256 256 251 241 139 204 254 193 160 154 144 150 155 149 130 147 205 227 291 295 299 303 315 310 305 309 302 301 302 306 304 303 301
228 213 240 249 238 259 251 272 294 209 254 212 262 249 188 199 219 176 131 145 148 144 147 134 142 156 182 185 238 295 297 296 302 301 304 310 313 310 305 309 309 310 307 303
228 246 231 219 237 257 242 296 212 280 312 319 317 299 217 191 167 158 151 151 145 144 138 150 146 171 179 216 245 304 305 298 298 307 311 311 314 311 313 315 313 314 312 309
233 202 230 223 235 244 210 215 258 287 288 293 298 292 207 187 176 166 168 148 147 156 146 151 152 155 207 258 301 317 307 308 313 318 317 314 314 321 317 321 321 324 320 312
237 206 247 275 264 243 283 245 263 310 306 300 300 293 211 201 155 149 164 128 139 152 159 148 143 161 196 308 341 316 304 314 320 323 316 317 320 323 321 319 322 318 317 315
246 183 225 255 267 278 265 266 240 292 306 314 307 287 203 158 168 159 142 139 148 151 143 146 147 152 189 343 356 318 316 327 332 319 315 325 323 326 320 318 316 312 311 310
219 242 231 251 258 225 272 247 228 279 308 309 299 289 197 169 148 151 139 136 143 147 139 134 144 143 66 35 3 322 338 342 342 336 330 329 331 329 324 321 320 312 297 313